This is the latest recevied weather packets stored in our database for station/object VE9LJW. If no packets are shown the sender has not sent any weather packets the latest 10 day(s).
| Time | Temp. | Humidity | Pressure | Rain* | Wind** | Luminosity | Snow |
|---|---|---|---|---|---|---|---|
| 1777611397 | 12.22° C | 99% | 1003.8 hPa | 5.33 mm | - | 0 W/m² | - |
| 1777611095 | 12.22° C | 99% | 1004 hPa | 5.33 mm | - | 0 W/m² | - |
| 1777610794 | 12.22° C | 99% | 1004 hPa | 5.33 mm | - | 0 W/m² | - |
| 1777610489 | 12.22° C | 99% | 1004 hPa | 6.6 mm | - | 0 W/m² | - |
| 1777610184 | 12.78° C | 99% | 1004.2 hPa | 5.33 mm | - | 0 W/m² | - |
| 1777609881 | 12.78° C | 99% | 1004.2 hPa | 3.05 mm | - | 0 W/m² | - |
| 1777609578 | 12.78° C | 99% | 1004.5 hPa | 3.56 mm | - | 0 W/m² | - |
| 1777609275 | 12.78° C | 99% | 1004.3 hPa | 3.05 mm | - | 0 W/m² | - |
| 1777608973 | 12.78° C | 99% | 1004.6 hPa | 2.29 mm | - | 0 W/m² | - |
| 1777608669 | 12.78° C | 99% | 1004.5 hPa | 3.56 mm | - | 0 W/m² | - |
| 1777608367 | 12.78° C | 99% | 1004.7 hPa | 4.83 mm | - | 0 W/m² | - |
| 1777608065 | 12.22° C | 99% | 1004.6 hPa | 4.32 mm | - | 0 W/m² | - |
| 1777607760 | 12.22° C | 99% | 1004.7 hPa | 4.32 mm | - | 0 W/m² | - |
| 1777607457 | 12.22° C | 99% | 1005.1 hPa | 5.33 mm | - | 0 W/m² | - |
| 1777607153 | 12.78° C | 99% | 1005.1 hPa | 4.83 mm | - | 0 W/m² | - |
| 1777606849 | 12.78° C | 99% | 1004.9 hPa | 4.83 mm | - | 0 W/m² | - |
| 1777606545 | 12.22° C | 99% | 1005.2 hPa | 3.05 mm | - | 0 W/m² | - |
| 1777606240 | 12.78° C | 99% | 1005.4 hPa | 2.29 mm | - | 0 W/m² | - |
| 1777605936 | 12.22° C | 99% | 1005.3 hPa | 3.05 mm | - | 0 W/m² | - |
| 1777605632 | 12.22° C | 99% | 1005.2 hPa | 3.05 mm | - | 0 W/m² | - |
| 1777605331 | 12.22° C | 99% | 1005.4 hPa | 3.56 mm | - | 0 W/m² | - |
| 1777605028 | 12.78° C | 99% | 1005.5 hPa | 2.29 mm | - | 0 W/m² | - |
| 1777604724 | 12.78° C | 99% | 1005.5 hPa | 1.27 mm | - | 0 W/m² | - |
| 1777604421 | 12.78° C | 99% | 1005.4 hPa | 1.27 mm | - | 0 W/m² | - |
| 1777604120 | 12.22° C | 99% | 1005.6 hPa | 1.27 mm | - | 0 W/m² | - |
* Rain latest hour (hover to see other rain measurements)
** Current wind speed in m/s (hover to see current wind gust speed)